Theta_e
299 301 301 301 299 301 304 306 302 298 298 297 297 295 295 295 296 296 296 295 293 291 289 288 287 286 286 285 284 284 284 284 284 284 284 284 283 284 284 283 283 283 282 282
298 300 298 298 299 297 298 298 297 296 296 297 296 297 297 294 295 295 295 294 292 290 288 287 286 286 285 284 284 284 283 283 283 282 282 282 282 283 283 282 282 282 282 281
298 299 297 297 298 302 299 299 298 298 297 296 293 298 296 294 293 291 291 291 289 289 288 287 286 285 285 284 284 283 283 283 282 282 282 282 282 282 282 282 281 281 281 281
297 297 297 298 299 300 300 298 298 298 298 300 293 303 297 294 293 292 291 289 288 287 287 286 286 285 284 284 283 283 283 282 282 282 281 281 281 281 281 281 281 281 280 281
300 298 297 298 298 298 298 298 298 297 295 297 296 295 297 293 295 293 291 289 287 286 286 286 285 285 284 284 283 283 283 282 281 281 281 281 281 281 281 281 281 281 281 280
299 297 297 296 296 298 296 297 296 294 293 299 289 293 301 298 296 294 291 289 288 286 285 285 285 284 284 284 284 283 282 282 281 281 281 280 280 280 280 280 280 280 280 280
296 299 296 294 296 297 296 296 299 303 300 305 280 292 300 297 293 292 292 289 287 286 285 284 284 284 284 284 284 282 281 281 281 280 280 280 280 280 280 280 280 280 280 279
294 300 295 294 296 296 297 293 299 296 300 300 281 296 301 293 290 289 289 288 287 285 285 284 284 284 284 284 284 282 281 280 280 280 279 279 279 279 279 279 279 279 279 279
293 297 295 294 294 293 296 293 292 287 276 288 294 295 296 292 291 290 289 289 287 285 285 284 285 285 284 284 284 281 280 280 279 279 278 278 279 279 279 279 279 279 279 278
293 293 290 295 294 292 294 292 295 292 295 297 296 288 301 295 291 288 290 289 288 287 285 285 285 284 284 284 281 280 279 279 278 278 278 278 278 278 278 278 278 278 278 277
290 289 295 294 291 292 292 292 291 292 294 295 294 299 293 291 286 286 285 288 285 284 285 283 282 282 283 280 279 279 278 278 277 277 277 277 277 277 277 277 277 277 277 277
295 293 291 294 293 293 295 292 294 296 292 290 292 297 291 284 278 276 285 286 284 277 280 279 280 281 279 279 279 278 278 277 277 277 277 276 276 276 276 276 276 276 276 276
294 289 290 297 294 291 292 294 291 288 291 291 294 299 285 278 280 280 281 283 279 278 277 278 278 278 278 278 277 278 277 277 276 276 276 276 275 275 275 275 275 275 275 275
294 293 293 297 297 289 291 293 293 292 288 294 296 298 298 298 288 286 283 280 276 276 275 276 276 277 277 277 277 277 276 276 275 275 275 274 274 273 274 274 273 273 274 274
293 290 290 290 289 285 292 293 291 293 296 293 297 295 297 297 293 285 277 275 277 276 276 275 275 275 277 277 276 276 276 275 275 274 273 273 273 272 273 272 272 272 272 274
292 289 284 288 290 289 291 291 292 292 292 291 294 294 294 293 275 276 279 273 275 274 274 274 274 275 276 276 276 275 275 274 274 273 273 273 271 271 271 271 271 269 269 270
289 285 284 290 284 285 294 290 291 288 286 288 291 294 280 284 281 279 278 274 274 272 270 272 273 275 276 276 275 275 274 273 273 272 272 271 270 270 269 268 267 267 267 268
282 282 279 289 284 292 303 290 290 290 291 286 288 291 284 282 279 276 274 274 274 273 273 274 276 276 276 275 274 273 272 272 271 271 270 269 269 267 266 266 265 265 266 266
289 287 288 286 278 293 298 290 290 292 292 291 290 289 284 281 280 281 278 278 276 276 277 277 276 276 275 273 272 272 271 271 270 269 268 268 267 265 265 264 264 264 265 266
286 284 290 276 287 294 298 289 288 289 293 287 289 288 285 282 287 282 278 278 277 277 276 276 275 274 273 272 271 270 270 269 268 267 268 266 265 264 263 263 264 264 264 265
289 291 291 283 287 291 292 289 288 296 300 286 286 285 283 284 281 278 277 277 277 276 275 275 274 272 271 270 270 269 268 268 266 266 265 264 263 263 263 263 263 263 263 263
294 293 289 286 293 299 288 287 296 294 285 285 284 283 282 279 278 277 277 276 276 275 274 273 272 270 270 269 268 268 267 266 265 264 263 262 262 262 263 262 263 262 263 263
294 296 296 297 300 292 288 291 287 285 286 283 282 280 279 278 277 277 275 275 275 273 272 271 269 269 268 268 267 266 265 264 263 262 261 261 261 262 261 262 261 262 262 263
289 289 292 294 299 294 292 289 285 284 284 281 280 279 277 277 277 276 274 274 273 272 270 269 268 267 267 266 265 264 263 262 261 261 261 261 261 261 260 260 261 261 262 263
294 290 293 294 297 295 291 287 285 282 280 278 277 277 277 276 276 275 274 272 271 270 269 268 267 266 266 265 264 263 262 261 260 260 260 260 260 260 260 260 260 262 262 264
290 295 298 305 297 294 290 286 283 281 279 278 277 275 275 275 274 273 271 270 269 268 267 267 266 265 264 263 263 262 261 260 259 259 260 260 259 259 259 259 260 261 262 264
Wind_Speed
7 11 4 3 3 2 1 1 3 4 1 4 5 9 9 6 5 6 5 6 6 6 4 3 4 7 9 13 15 19 20 21 24 27 30 28 31 27 30 29 32 30 33 33
8 5 4 3 3 3 3 1 4 6 2 3 6 19 13 10 6 8 11 8 7 4 4 2 3 7 10 10 11 13 16 18 21 23 24 23 25 24 27 32 34 32 33 33
7 1 3 1 5 2 1 0 2 5 8 1 7 9 3 3 2 4 4 3 3 5 4 2 1 2 4 8 11 13 16 18 20 23 25 26 23 24 21 35 34 35 35 33
5 3 1 1 2 1 3 2 2 4 4 3 5 5 6 1 5 6 6 7 5 6 4 5 5 3 5 7 10 13 15 19 21 23 25 26 21 19 23 27 27 33 33 31
1 2 3 3 1 2 1 2 1 2 3 2 4 2 7 3 5 8 10 9 9 8 7 7 8 6 4 6 9 13 16 19 22 23 24 25 24 24 24 24 25 25 23 25
2 1 1 2 2 1 2 1 4 3 3 3 3 3 5 4 4 3 2 9 11 9 7 11 10 7 6 6 10 15 18 22 25 25 25 26 27 26 25 26 26 24 25 24
5 1 2 3 3 1 6 5 4 6 5 5 1 1 11 3 5 3 5 7 10 7 7 7 9 9 8 9 13 18 20 23 27 28 28 28 29 27 24 26 25 28 26 25
4 6 4 5 3 2 3 4 4 4 4 5 2 6 5 3 2 4 5 6 6 8 8 7 11 11 11 11 14 19 21 25 28 29 29 29 30 29 25 25 27 27 27 27
4 5 2 4 2 2 1 4 3 6 1 3 3 7 10 2 6 5 6 3 7 8 7 6 11 11 13 13 14 18 23 26 28 29 30 29 28 25 26 27 27 27 27 28
2 4 1 2 1 4 4 3 4 3 5 7 5 5 6 6 5 4 7 8 9 7 6 5 7 9 11 9 15 20 24 26 27 26 26 25 27 26 26 27 27 28 28 28
3 3 4 1 2 5 2 2 5 3 3 4 5 6 7 7 4 4 6 8 7 7 4 3 8 11 8 13 19 22 25 26 25 25 26 26 25 26 27 28 29 28 28 28
1 4 3 8 1 2 1 4 4 4 6 3 1 13 1 4 3 3 8 7 6 1 2 5 9 8 13 19 22 24 26 27 24 26 25 25 26 27 28 28 29 29 29 29
5 1 4 10 2 3 3 4 4 3 2 7 1 8 1 2 5 7 8 8 4 4 5 6 6 11 16 21 23 25 27 26 24 24 24 26 26 27 28 28 29 31 30 30
4 3 8 7 8 3 5 6 4 5 2 5 14 30 26 20 7 6 5 6 5 4 4 4 6 14 19 22 24 27 28 26 25 24 26 27 27 29 29 28 31 32 33 32
3 5 3 5 8 5 12 15 9 13 19 8 30 14 27 22 11 5 4 4 4 3 4 3 5 14 21 22 24 26 27 29 30 29 29 28 30 30 28 31 32 32 36 34
2 3 2 6 5 6 11 17 16 18 17 14 26 28 22 16 3 3 4 2 2 2 5 6 10 16 19 22 25 27 30 33 33 34 31 33 32 29 32 32 33 40 37 34
2 3 3 6 4 9 9 9 8 5 5 6 7 11 0 2 3 3 3 2 2 3 4 7 11 17 20 23 27 29 32 33 32 33 33 31 31 31 30 36 36 34 33 34
5 3 1 4 6 1 7 1 3 9 9 12 12 13 2 4 2 2 1 3 1 4 5 9 15 21 24 26 26 28 31 29 30 31 30 29 27 32 34 35 33 33 33 32
1 4 2 2 2 10 8 2 4 4 7 9 12 8 3 1 1 3 3 1 2 3 9 13 16 18 22 22 25 27 28 29 28 27 30 25 33 35 34 34 34 34 33 33
3 4 3 3 2 6 3 1 0 3 5 5 3 3 3 2 3 0 3 3 6 10 12 14 17 18 18 22 23 24 24 26 25 30 27 33 33 32 33 33 32 33 33 28
2 1 5 3 4 11 12 6 4 3 6 2 2 3 4 1 2 3 3 5 8 9 12 15 15 16 18 21 22 23 24 24 28 28 31 31 31 31 31 31 33 31 34 29
8 7 5 3 4 10 8 3 7 3 3 5 4 4 4 5 4 2 2 4 8 11 14 14 16 19 20 19 21 23 24 28 28 30 31 30 30 30 29 31 29 30 27 28
4 8 6 13 9 1 8 5 3 5 5 4 5 4 5 5 2 2 3 6 9 11 12 13 16 19 20 21 21 24 26 26 29 30 30 29 28 28 28 28 27 25 25 24
5 5 5 2 17 20 16 12 6 6 5 5 5 6 4 5 3 0 1 4 8 12 13 18 22 19 21 24 24 23 24 26 27 28 28 27 27 28 27 25 23 24 23 24
5 7 5 9 22 17 12 6 6 6 8 9 7 6 5 5 2 2 1 4 8 12 16 18 19 18 23 24 26 26 26 27 25 25 25 25 25 26 26 23 23 25 25 26
7 9 7 11 7 9 2 3 8 9 8 9 8 4 5 5 4 2 1 5 9 15 18 19 19 20 22 25 25 25 27 25 25 25 24 24 26 25 25 26 28 24 24 25
Wind_Direction
17 64 48 333 334 349 130 182 270 259 38 325 254 273 256 200 186 199 191 187 182 171 161 103 69 53 46 38 30 26 20 16 12 10 6 359 355 355 353 352 352 350 349 349
33 58 327 289 10 72 49 2 290 280 16 351 352 292 264 181 202 189 196 201 193 188 182 131 43 34 32 26 23 18 16 13 11 8 4 358 351 344 346 343 345 344 343 342
91 301 303 171 30 21 37 182 319 261 331 68 325 285 280 222 170 205 213 205 204 202 204 211 334 351 360 9 10 6 8 6 5 1 357 354 352 340 340 340 338 337 336 336
88 321 349 115 96 110 295 78 316 298 19 287 16 282 306 301 257 234 215 212 208 211 212 217 235 282 345 349 355 357 357 359 356 355 354 353 344 332 326 327 326 329 333 332
262 6 18 59 343 80 302 338 279 79 104 13 350 67 274 14 285 246 220 210 213 212 209 219 227 242 279 331 345 350 348 351 353 349 348 344 336 329 324 320 321 322 322 323
111 134 53 349 313 214 16 65 45 67 104 17 243 104 277 239 213 280 257 209 207 211 219 228 232 245 270 316 338 345 345 344 347 344 341 339 335 330 323 324 321 318 318 319
344 78 58 12 335 89 38 42 341 354 4 234 45 4 251 278 232 232 275 238 209 204 217 229 234 246 275 314 338 348 345 337 340 341 341 338 333 327 323 319 316 317 318 317
72 333 16 350 76 207 45 119 139 279 287 282 16 240 255 192 280 266 280 273 200 209 226 229 242 257 277 306 331 339 340 335 338 340 338 335 331 326 318 312 313 312 311 310
33 294 22 31 6 61 320 41 142 95 95 25 267 289 288 266 277 260 259 225 228 226 227 237 260 276 294 300 321 335 338 337 338 338 336 331 326 316 313 313 309 306 306 307
190 335 304 285 63 37 102 162 32 13 336 311 277 271 246 297 283 271 255 251 247 235 236 249 277 303 316 320 335 337 337 338 336 334 330 323 320 314 310 309 306 304 305 307
126 92 288 49 194 181 25 14 44 118 143 213 294 251 211 226 227 226 263 262 270 248 237 285 316 327 332 337 339 339 341 337 333 331 326 320 317 315 312 308 307 305 305 305
186 132 275 236 81 7 315 203 157 126 261 232 193 279 73 223 236 238 277 286 297 281 284 318 328 335 342 341 343 342 338 335 330 327 321 320 319 319 316 313 312 309 304 303
169 310 349 335 42 12 205 209 160 122 83 204 169 267 288 297 285 245 257 283 296 286 325 343 350 344 342 342 340 338 336 332 327 324 323 322 321 321 317 314 315 313 306 305
154 178 182 213 222 160 246 213 195 141 180 250 231 276 279 281 266 276 265 267 292 270 311 307 329 337 339 339 338 336 335 334 331 326 325 323 324 322 318 316 317 317 312 304
126 217 224 258 252 211 256 257 198 204 235 215 273 261 276 290 289 276 276 298 344 350 336 332 321 324 333 333 335 337 337 339 336 329 327 325 324 322 318 319 318 319 317 306
11 260 105 281 292 254 266 250 238 234 253 257 261 276 275 285 338 298 272 280 319 313 300 320 313 322 324 333 337 338 340 338 336 333 327 327 323 322 318 320 320 315 311 307
152 131 37 267 334 312 296 228 182 190 221 166 212 247 84 306 320 257 281 172 241 258 281 301 304 318 331 339 342 340 336 334 333 329 326 322 322 317 321 317 315 314 314 311
132 88 72 276 342 20 249 212 186 191 243 208 271 270 187 233 252 285 189 160 291 283 290 306 329 338 342 342 339 333 333 331 329 325 321 323 322 321 319 317 315 316 315 312
91 127 290 264 227 291 286 161 138 185 269 236 228 285 271 222 237 83 112 92 260 291 333 337 337 339 338 338 337 333 331 331 326 324 326 327 325 320 319 318 319 317 316 313
55 68 143 71 194 264 251 101 141 176 286 36 157 179 198 191 337 201 28 10 2 359 355 343 342 337 336 339 337 331 328 328 327 328 328 323 322 320 318 320 318 320 316 324
143 186 215 168 256 278 259 186 187 63 290 234 148 173 162 176 108 127 17 9 2 353 346 348 339 334 337 338 337 329 328 328 327 326 324 323 322 321 321 321 322 323 327 326
179 163 198 128 218 274 157 100 191 193 179 177 160 161 134 114 109 61 30 355 1 349 349 346 338 334 337 338 335 327 329 328 327 326 325 324 324 325 325 324 327 329 331 327
263 198 181 189 221 116 204 230 176 186 171 186 151 130 125 125 106 31 343 357 350 343 336 335 336 331 335 336 335 326 326 328 327 327 325 325 327 327 327 330 329 329 329 328
247 180 232 121 252 247 254 232 196 176 164 132 121 134 125 135 144 128 343 348 335 331 333 341 341 330 326 333 331 327 329 330 329 326 326 327 329 327 327 329 329 324 325 321
199 149 193 259 281 274 251 225 173 133 120 113 102 124 132 139 120 89 16 324 322 325 337 342 333 324 322 329 332 339 340 338 330 327 327 328 329 326 325 328 326 325 322 321
184 210 195 250 246 229 208 145 142 142 145 141 133 125 122 113 109 89 340 333 329 333 344 339 329 324 327 333 335 343 346 340 332 328 331 328 326 325 325 325 324 328 328 330